Location: Beauvais
(47.2023°N, 0.8663°E)
Time: 03:07:48
(UTC+00:00)

Daily predictions for brighter satellites

Satellite Brightness Start Highest point End
(mag) Time Altitude Azimuth Time Altitude Azimuth Time Altitude Azimuth
H-2A R/B 4.2 02:59:54 10° NE 03:02:39 20° ENE 03:02:39 20° ENE
NOSS 3-1 (A) 4.0 03:23:44 77° ESE 03:23:44 77° ESE 03:31:58 10° SE
Cosmos 1980 Rocket 3.5 03:23:21 34° ESE 03:23:23 34° ESE 03:28:23 10° NE
USA 281 4.3 03:21:50 10° ESE 03:27:51 40° NE 03:32:52 15° N
ATLAS 3B R/B 3.3 03:27:51 51° N 03:29:34 62° NE 03:37:14 10° SE
USA 267 4.1 03:32:31 10° ENE 03:38:25 38° N 03:38:49 38° N
Cosmos 1697 Rocket 3.6 03:42:44 40° NNE 03:42:44 40° NNE 03:46:19 10° NNE
ATLAS CENTAUR R/B 4.1 03:43:56 14° NE 03:43:56 14° NE 03:44:32 10° NE
Lacrosse 4 Rocket 3.5 03:49:00 23° ESE 03:49:00 23° ESE 03:50:44 10° SE
ATLAS 2AS CENTAUR R/B 2.7 03:47:22 81° NNW 03:47:22 81° NNW 03:54:13 10° NE
Cosmos 1818 4.2 03:51:21 51° SE 03:51:34 51° ESE 03:56:52 10° NE
USA 59 Rocket 2.1 03:53:36 21° NE 03:53:36 21° NE 03:56:50 10° E
CZ-2C R/B 4.1 03:54:51 10° NNE 03:56:42 24° NNE 03:56:42 24° NNE
Cosmos 2263 Rocket 2.3 04:00:00 71° NE 04:00:17 73° ENE 04:05:54 10° SSE
Cosmos 2082 4.0 04:03:03 47° N 04:04:33 65° ENE 04:10:10 10° SE
Cosmos 2227 Rocket 4.2 04:13:54 14° S 04:13:54 14° S 04:14:45 10° S
Cosmos 2266 Rocket 4.1 04:03:41 10° S 04:10:05 78° E 04:16:29 10° N
Cosmos 2285 Rocket 4.1 04:11:34 56° SSW 04:11:34 56° SSW 04:16:46 10° S
BREEZE-M DEB (TANK) 3.7 04:14:05 32° ENE 04:14:05 32° ENE 04:17:00 10° E
SL-16 R/B 4.4 04:18:26 10° SSE 04:22:53 24° ESE 04:27:22 10° NE
Gbstr 26 Del rocket 4.4 04:22:25 30° S 04:23:45 36° SE 04:28:31 10° ENE
USA 229 DEB 4.1 04:21:54 26° NNW 04:26:29 73° NE 04:34:34 10° SE
USA 229 4.1 04:22:01 26° NNW 04:26:36 73° NE 04:34:39 10° SE
Cosmos 1484 Rocket 3.7 04:25:03 10° NNE 04:28:25 42° E 04:30:40 18° SSE
Cosmos 304 Rocket 4.3 04:26:56 26° N 04:29:30 58° ENE 04:34:11 10° SE
Cosmos 1655 Rocket 4.2 04:23:16 10° S 04:29:36 72° E 04:35:56 10° NNE
IRAS Rocket 4.1 04:28:54 10° NNE 04:34:26 83° WNW 04:39:58 10° SSW
S3M 3.9 04:29:44 10° NNW 04:35:57 66° W 04:42:02 10° S
Cosmos 2219 3.2 04:35:43 54° W 04:36:02 55° WSW 04:41:32 10° S
DELTA 2 R/B (1) 4.4 04:35:55 34° SSW 04:37:08 38° S 04:42:15 10° ESE
BREEZE-M DEB (TANK) 3.8 04:39:15 19° SE 04:39:15 19° SE 04:41:14 10° E
Cosmos 1417 Rocket 4.5 04:33:43 10° NNW 04:39:38 52° W 04:45:31 10° SSW
H-2A R/B 2.1 04:38:35 10° N 04:43:10 50° WNW 04:43:10 50° WNW
BREEZE-M DEB (TANK) 2.8 04:45:30 53° SSE 04:45:30 53° SSE 04:50:51 10° ESE
SL-8 R/B 3.9 04:49:42 39° SW 04:51:18 65° SSE 04:56:01 10° ENE
Meteor 1-24 Rocket 3.5 04:45:56 10° SSW 04:51:22 64° WNW 04:56:42 10° N
ARIANE 5 R/B 4.5 04:49:34 10° NE 04:54:01 30° E 04:58:30 10° SSE
ARGOS 3.1 04:49:08 10° NNE 04:54:36 89° WNW 05:00:01 10° SSW
Thor Agena Rocket 3.4 04:50:58 10° NNE 04:56:11 72° WNW 05:01:17 10° SSW
Cosmos 1844 Rocket 3.6 04:54:25 10° NNW 04:59:54 48° NE 05:05:20 10° SE
Meteor 2-20 Rocket 4.2 04:54:03 10° NNW 04:59:56 68° W 05:05:37 10° S
NOSS 2-1 (C) 3.7 04:58:22 31° NNW 05:00:04 65° NE 05:05:02 10° SE
Cosmos 2322 Rocket 4.1 04:57:30 10° SSE 05:02:24 31° ESE 05:07:17 10° NE
Sich 1 Rocket 3.9 05:01:10 10° N 05:05:38 69° E 05:10:06 10° SSE
H-2A R/B 4.4 05:05:11 10° NE 05:07:12 22° E 05:09:13 10° SSE
Cosmos 1980 Rocket 2.5 05:05:09 30° WSW 05:07:16 43° NW 05:12:36 10° NNE
IRS-1D 4.0 05:04:29 10° N 05:08:57 34° WNW 05:09:55 31° W
YAOGAN 11 4.5 05:05:43 10° SSE 05:09:59 64° ENE 05:14:23 10° N
Cosmos 2369 3.8 05:07:06 17° SW 05:11:20 54° WNW 05:16:54 10° NNE
USA 281 3.4 05:05:55 10° S 05:12:13 49° WSW 05:18:36 10° NW
Cosmos 1378 Rocket 3.4 05:10:38 10° SSW 05:15:02 79° W 05:19:28 10° N
Cosmos 1674 Rocket 3.5 05:12:44 10° S 05:17:02 88° E 05:21:24 10° N
FengYun 1-2 T 4.2 05:11:56 10° NNE 05:17:36 83° WNW 05:23:16 10° SSW
Cosmos 1025 Rocket 4.3 05:13:39 10° SSE 05:17:38 42° E 05:21:40 10° NNE
ATLAS CENTAUR R/B 2.5 05:18:24 22° NNW 05:18:24 22° NNW 05:21:18 10° NNE
Cosmos 371 Rocket 3.6 05:16:34 20° NW 05:19:35 45° WSW 05:24:09 10° S
Meteor 2-5 Rocket 4.1 05:14:31 10° SW 05:19:55 40° WNW 05:25:14 10° N
ATLAS 3B R/B 3.4 05:15:09 19° WNW 05:20:08 41° WSW 05:27:07 10° S
USA 267 3.7 05:14:24 10° E 05:20:44 55° NNE 05:26:09 15° NW
Okean 2 Rocket 3.0 05:16:48 10° NNW 05:21:18 79° W 05:25:44 10° S
ARIANE 6 FM1 Upper Stage 3.1 05:17:14 10° SSW 05:21:24 65° SE 05:25:39 10° NE
COSMO-SKYMED 1 2.5 05:19:30 10° S 05:23:49 62° W 05:28:09 10° NNW
Cosmos 1992 Rocket 4.0 05:18:44 10° SW 05:23:54 62° WNW 05:29:06 10° NNE
Cosmos 1939 Rocket 3.4 05:20:39 10° N 05:23:56 30° WNW 05:24:25 29° W
Cosmos 1486 Rocket 4.0 05:19:24 10° NNW 05:24:38 86° ENE 05:29:52 10° SSE
Lacrosse 4 Rocket 2.6 05:24:51 22° WSW 05:24:51 22° WSW 05:27:48 10° SSW
Cosmos 332 Rocket 4.0 05:20:21 10° NNW 05:25:15 74° ENE 05:30:06 10° SSE
Cosmos 1697 Rocket 4.0 05:24:30 19° NW 05:25:24 20° NW 05:29:29 10° N
NOAA 12 4.1 05:21:06 10° NNE 05:26:28 89° ESE 05:31:48 10° SSW
Cosmos 1844 4.0 05:23:01 10° NNW 05:28:41 70° ENE 05:34:23 10° SE
NOSS 2-1 (D) 3.5 05:29:47 20° NW 05:32:24 68° SW 05:37:36 10° SSE
Cosmos 2098 Rocket 2.4 05:28:58 10° N 05:32:49 87° E 05:36:02 10° S
Cosmos 2227 4.2 05:29:20 10° NNW 05:34:57 66° WSW 05:40:35 10° SSE
Cosmos 1818 4.2 05:32:02 19° W 05:35:20 35° NW 05:40:22 10° NNE
SJ-11-01 4.2 05:32:05 10° N 05:36:45 77° WNW 05:41:24 10° SSW
CZ-2C R/B 4.3 05:34:53 10° NNW 05:35:57 12° NW 05:35:57 12° NW
CRYOSAT 2 4.3 05:34:02 10° S 05:38:56 87° W 05:43:51 10° N
ATLAS 2AS CENTAUR R/B 3.7 05:34:49 17° WNW 05:39:03 30° NNW 05:45:03 10° NNE
NOSS 3 (A) 2.6 05:42:42 69° WNW 05:42:46 71° NW 05:44:19 10° NE
USA 59 Rocket 0.2 05:39:52 16° NW 05:42:52 58° SW 05:48:10 10° SSE
Cosmos 2263 Rocket 3.5 05:41:46 16° WNW 05:43:33 19° W 05:47:21 10° SW
Cosmos 1455 Rocket 3.8 05:39:46 10° N 05:44:05 55° ENE 05:48:19 10° SSE
Nadezhda 1 Rocket 4.1 05:38:44 10° N 05:44:56 78° E 05:51:00 10° SSE
CBERS-1 4.3 05:42:01 10° N 05:46:50 43° WNW 05:51:38 10° SW
Cosmos 2237 4.2 05:41:15 10° SW 05:46:53 67° WNW 05:52:35 10° NNE
SL-08 R/B 4.4 05:44:45 10° SSW 05:50:51 73° W 05:57:01 10° N
Cosmos 1869 4.0 05:48:25 10° N 05:52:11 55° ENE 05:55:55 10° SSE
Cosmos 2360 Rocket 2.8 05:48:43 10° S 05:54:14 62° ESE 05:59:47 10° NNE
Cosmos 1437 Rocket 3.3 05:51:05 10° SW 05:54:15 29° WNW 05:57:28 10° N
Cosmos 2151 Rocket 4.3 05:50:23 10° NNW 05:54:19 32° W 05:58:16 10° SSW
DMSP B5D1-3 4.5 05:56:16 10° S 06:01:21 78° WSW 06:06:30 10° NNW
Cosmos 1484 Rocket 4.2 05:59:33 10° NNW 06:01:35 15° WNW 06:03:38 10° W
Cosmos 1606 2.3 05:59:21 10° NNW 06:02:44 71° W 06:06:05 10° S
Okean 1 Rocket 3.5 05:58:33 10° NNW 06:02:46 42° W 06:06:59 10° SSW
Cosmos 1354 Rocket 4.1 05:58:33 10° NNW 06:03:54 89° ENE 06:09:10 10° SSE
BREEZE-M DEB (TANK) 2.6 05:59:20 11° WNW 06:04:33 65° N 06:06:45 10° E
Cosmos 2084 Rocket 3.5 06:00:33 10° WSW 06:04:48 55° NW 06:08:56 10° NE
SL-16 R/B 2.3 06:00:58 10° SW 06:06:33 59° WNW 06:12:10 10° NNE
Cosmos 292 Rocket 4.1 06:04:38 10° NNW 06:09:27 72° ENE 06:14:15 10° SSE
Gbstr 26 Del rocket 3.5 06:05:20 10° WSW 06:10:04 72° NNW 06:15:59 10° ENE
NOSS 2-1 (E) 4.4 06:06:56 10° WNW 06:10:39 36° SW 06:15:36 10° S
CZ-2D R/B 3.0 06:08:18 10° N 06:11:47 60° WNW 06:15:15 10° SSW
TRACE 4.3 06:10:03 10° S 06:13:15 62° WSW 06:16:31 10° NNW
EXPRESS MD2 2.5 06:10:29 10° WSW 06:13:41 71° SSE 06:15:58 10° ENE
ADEOS Rocket 3.5 06:08:22 10° NNE 06:15:42 86° ESE 06:22:15 10° SSW
Cosmos 2228 4.5 06:13:24 10° N 06:17:19 38° ENE 06:21:11 10° SE
CZ-2D R/B 3.3 06:13:28 10° NNE 06:17:25 79° WNW 06:21:24 10° SSW
SJ-12 4.1 06:16:10 10° N 06:19:58 47° WNW 06:23:45 10° SW
